Flag for Israel Weather past 2 weeks in Kfar Saba, Israel

Now
75 °F

Sunny.


Feels Like: 77 °F
Forecast: 67 / 89 °F
Wind: 12 mph from Southwest

Location: Dov Airport

Current Time: Apr 28, 2015 at 1:24:18 PM

Latest Report: Apr 28, 2015 at 12:50 PM


Visibility: 10 mi

Pressure: 29.92 "Hg

Humidity: 69%

Dew point: 64 °F

Location of Kfar SabaLocation

Historic Weather in Kfar Saba — Graph

°F

Kfar Saba temperature yesterday

Maximum temperature yesterday: 73 °F (at 12:50 PM)
Minimum temperature yesterday: 61 °F (at 5:00 AM)
Average temperature yesterday: 70 °F

Past Weeks' High & Low Weather Summary

 TemperatureHumidityPressure
High82 °F (Apr 20, 3:50 PM)94% (Apr 17, 5:50 AM)30.24 "Hg (Apr 17, 5:50 AM)
Low54 °F (Apr 25, 6:00 AM)15% (Apr 20, 6:50 PM)29.80 "Hg (Apr 20, 8:50 PM)
Average66 °F65%30.01 "Hg
* Reported Apr 13 11:50 AM — Apr 28 11:50 AM, Kfar Saba, Weather by CustomWeather, © 2015

Note: Actual official high and low records may vary slightly from our data, if they occured in-between our weather recording intervals... More about our weather records

Advertising

Kfar Saba weather history for previous 24 hours

 ConditionsComfort  
Time TempWeatherWind HumidityBarometerVisibility
11:50 AM
Tue, Apr 28
75 °FSunny.10 mph74%29.92 "Hg10 mi
10:50 AM75 °FSunny.14 mph69%29.92 "Hg10 mi
9:50 AM75 °FSunny.13 mph54%29.92 "Hg10 mi
8:50 AM75 °FSunny.6 mph47%29.89 "Hg10 mi
7:50 AM72 °FSunny.8 mph61%29.86 "Hg10 mi
6:50 AM70 °FClear.5 mph43%29.83 "Hg10 mi
5:50 AM70 °FClear.1 mph43%29.80 "Hg10 mi
10:50 PM
Mon, Apr 27
73 °FClear.No wind41%29.83 "Hg10 mi
9:50 PM73 °FClear.2 mph44%29.83 "Hg10 mi
8:50 PM70 °FClear.5 mph69%29.83 "Hg10 mi
7:50 PM70 °FSunny.9 mph78%29.83 "Hg10 mi
6:50 PM72 °FSunny.10 mph73%29.80 "Hg10 mi
5:50 PM73 °FSunny.10 mph69%29.83 "Hg10 mi
4:50 PM73 °FSunny.8 mph65%29.83 "Hg10 mi
3:50 PM73 °FSunny.10 mph65%29.83 "Hg10 mi
2:50 PM73 °FSunny.9 mph65%29.86 "Hg10 mi
1:50 PM73 °FPassing clouds.7 mph65%29.86 "HgN/A
Weather by CustomWeather, © 2015

See weather overviewHow to use our weather pages